Regional Weather Roundup
Issued by NWS

Home | Current Version | Previous Version | Text Only | Print | Product List | Glossary On
Versions: 1 2 3 4 5 6 7 8 9 10 11 12 13 14 15 16 17 18 19 20 21 22 23 24 25 26 27 28 29 30 31 32 33 34 35 36 37 38 39 40 41 42 43 44 45 46 47 48 49 50
000
ASUS43 KTOP 281008
RWRKS

WEATHER ROUNDUP FOR KANSAS
NATIONAL WEATHER SERVICE GOODLAND KS
500 AM CDT SAT MAR 28 2015

NOTE:  "FAIR" INDICATES FEW OR NO CLOUDS BELOW 12,000 FEET WITH NO
SIGNIFICANT WEATHER AND/OR OBSTRUCTIONS TO VISIBILITY.

KSZ001>006-013>018-027>032-041>047-281100-
NORTHWEST KANSAS

CITY           SKY/WX    TMP DP  RH WIND       PRES   REMARKS
GOODLAND       CLEAR     43  34  70 W7        30.00S
HAYS           CLEAR     36  27  69 CALM      29.93F
HILL CITY      CLEAR     34  30  85 W6        29.95F
RUSSELL        CLEAR     36  32  85 S7        29.92F
$$

KSZ061>065-074>080-084>089-281100-
SOUTHWEST KANSAS

CITY           SKY/WX    TMP DP  RH WIND       PRES   REMARKS
DODGE CITY     CLEAR     47  34  60 SW13      29.96F
ELKHART          N/A     50  32  50 SW9         N/A
GARDEN CITY    PTCLDY    44  35  70 W9        29.96F
GREAT BEND     CLEAR     36  28  75 E5        29.95S
LIBERAL        CLEAR     50  34  53 W15       30.01S
PRATT          CLEAR     41  36  81 SW9       29.95S
$$

KSZ066>073-081>083-090>101-281100-
SOUTHEAST KANSAS

CITY           SKY/WX    TMP DP  RH WIND       PRES   REMARKS
CHANUTE        CLOUDY    41  29  62 SE7       30.07S
COFFEYVILLE    LGT RAIN  42  33  70 SE6       30.05F
HUTCHINSON     PTCLDY    40  32  73 SE8       29.98S
MEDICINE LODGE   N/A     40  35  83 S3        29.96F
NEWTON         CLOUDY    43  28  56 SE7       30.00F
PARSONS        CLOUDY    42  33  70 S6        30.06F
WICHITA INTL   MOCLDY    42  30  62 SE8       29.99S
WICHITA JABRA  PTCLDY    43  31  62 SE8       29.99F
WICHITA MCCONL PTCLDY    43  31  63 SE8       29.99F
WINFIELD       MOCLDY    43  31  62 SE8       30.02F
$$

KSZ007>012-019>026-033>040-048>060-102>105-281100-
NORTHEAST KANSAS

CITY           SKY/WX    TMP DP  RH WIND       PRES   REMARKS
CONCORDIA      MOCLDY    35  26  69 E5        29.98R
EMPORIA        CLOUDY    38  27  64 S14       30.00F WCI  30
LAWRENCE       CLOUDY    38  26  62 E10       30.09R WCI  31
MANHATTAN      PTCLDY    38  24  57 E3        30.02S
MARYSVILLE     CLOUDY    36  28  75 SE7       30.03R
OLATHE IND     CLOUDY    38  26  62 E9        30.10R
OLATHE EXE     CLOUDY    38  24  57 SE7       30.09R
SALINA         PTCLDY    41  31  67 SE8       29.98F
TOPEKA BILLARD CLOUDY    40  25  55 E7        30.08S
TOPEKA FORBES  CLOUDY    40  25  55 E12       30.05F WCI  33
$$


USA.gov is the U.S. government's official web portal to all federal, state and local government web resources and services.